This is the latest recevied weather packets stored in our database for station/object N9GKE-1. If no packets are shown the sender has not sent any weather packets the latest 10 day(s).
| Time | Temp. | Humidity | Pressure | Rain* | Wind** | Luminosity | Snow |
|---|---|---|---|---|---|---|---|
| 1778130093 | 6.11° C | 72% | 1016.2 hPa | 0 mm | - | - | - |
| 1778129494 | 6.11° C | 71% | 1016.2 hPa | 0 mm | - | - | - |
| 1778128894 | 6.11° C | 70% | 1016.1 hPa | 0 mm | - | - | - |
| 1778128294 | 6.67° C | 69% | 1016.1 hPa | 0 mm | - | - | - |
| 1778127694 | 6.67° C | 68% | 1016.1 hPa | 0 mm | - | - | - |
| 1778127095 | 7.22° C | 67% | 1015.9 hPa | 0 mm | - | - | - |
| 1778126493 | 7.78° C | 66% | 1016.1 hPa | 0 mm | - | - | - |
| 1778125894 | 7.78° C | 66% | 1016 hPa | 0 mm | - | - | - |
| 1778125294 | 7.78° C | 65% | 1016 hPa | 0 mm | - | - | - |
| 1778124693 | 7.78° C | 65% | 1016 hPa | 0 mm | - | - | - |
| 1778124094 | 8.33° C | 64% | 1015.9 hPa | 0 mm | - | - | - |
| 1778123494 | 8.33° C | 65% | 1015.7 hPa | 0 mm | - | - | - |
| 1778122895 | 7.78° C | 66% | 1015.7 hPa | 0 mm | - | - | - |
| 1778122293 | 7.78° C | 67% | 1015.5 hPa | 0 mm | - | - | - |
| 1778121695 | 8.33° C | 67% | 1015.4 hPa | 0 mm | - | - | - |
| 1778121094 | 8.33° C | 66% | 1015.3 hPa | 0 mm | - | - | - |
| 1778120495 | 8.89° C | 64% | 1015.1 hPa | 0 mm | - | - | - |
| 1778119894 | 8.89° C | 64% | 1015.1 hPa | 0 mm | - | - | - |
| 1778119293 | 8.89° C | 63% | 1015 hPa | 0 mm | - | - | - |
| 1778118694 | 9.44° C | 63% | 1015 hPa | 0 mm | - | - | - |
| 1778118093 | 9.44° C | 61% | 1015 hPa | 0 mm | - | - | - |
| 1778117494 | 10° C | 58% | 1015 hPa | 0 mm | - | - | - |
| 1778116893 | 10.56° C | 57% | 1014.9 hPa | 0 mm | - | - | - |
| 1778116296 | 10.56° C | 56% | 1014.8 hPa | 0 mm | - | - | - |
| 1778115695 | 11.11° C | 55% | 1014.7 hPa | 0 mm | - | - | - |
* Rain latest hour (hover to see other rain measurements)
** Current wind speed in m/s (hover to see current wind gust speed)